Iowa City, IA

3:49 AM CDT on October 17, 2017 (GMT -0500)
Iowa City Municipal

Weather History for KIOW - October, 2012

Change the Weather History Date:

Wednesday, October 24, 2012

  Actual Average Record
Temperature  
Mean Temperature 72 °F 49 °F  
Max Temperature 80 °F 59 °F 81 °F (1963)
Min Temperature 64 °F 39 °F 21 °F (1999)
Degree Days  
Heating Degree Days 0 16  
Month to date heating degree days 295 291  
Since 1 July heating degree days 434 403  
Cooling Degree Days 7 0  
Month to date cooling degree days 9 10  
Year to date cooling degree days 1266 912  
Growing Degree Days 22 (Base 50)    
Moisture  
Dew Point 64 °F    
Average Humidity 79    
Maximum Humidity 100    
Minimum Humidity 58    
Precipitation  
Precipitation 0.02 in 0.10 in 1.12 in (1967)
Month to date precipitation 3.33 2.21  
Year to date precipitation 23.12 31.75  
Sea Level Pressure  
Sea Level Pressure 29.80 in    
Wind  
Wind Speed 10 mph (SSE)    
Max Wind Speed 23 mph    
Max Gust Speed 29 mph    
Visibility 9 miles    
Events Rain    
T = Trace of Precipitation, MM = Missing Value Source: NWS Daily Summary

Daily Weather History Graph

Daily Weather History Graph

Search for Another Location

Airport or City:

Trip Planner

Search our weather history database for the weather conditions in past years. The results will help you decide how hot, cold, wet, or windy it might be!

Date:

Astronomy

Oct. 24, 2012 Rise Set
Actual Time 7:29 AM CDT 6:10 PM CDT
Civil Twilight 7:00 AM CDT 6:39 PM CDT
Nautical Twilight 6:28 AM CDT 7:11 PM CDT
Astronomical Twilight 5:56 AM CDT 7:43 PM CDT
Moon 3:30 PM CDT (10/24) 2:20 AM CDT (10/24)
Length of Visible Light 11h 38m
Length of Day
10h 41m
Waxing Gibbous, 76% of the Moon is Illuminated
Oct 24
Waxing Gibbous
Oct 29
Full
Nov 6
Last Quarter
Nov 13
New
Nov 20
First Quarter

Hourly Weather History & Observations

Time (CDT) Temp. Heat Index Dew Point Humidity Pressure Visibility Wind Dir Wind Speed Gust Speed Precip Events Conditions
12:52 AM 66.0 °F - 63.0 °F 90% 29.83 in 9.0 mi SSE 8.1 mph - 0.00 in Rain Light Rain
1:52 AM 64.9 °F - 63.0 °F 93% 29.83 in 10.0 mi SE 5.8 mph - 0.05 in   Overcast
2:00 AM 64.4 °F - 62.6 °F 94% 29.84 in 10.0 mi ESE 3.5 mph - N/A   Overcast
2:52 AM 64.9 °F - 63.0 °F 93% 29.83 in 10.0 mi SE 4.6 mph - N/A   Overcast
3:52 AM 64.9 °F - 63.0 °F 93% 29.83 in 8.0 mi ESE 3.5 mph - N/A   Overcast
4:17 AM 64.4 °F - 62.6 °F 94% 29.83 in 8.0 mi ESE 4.6 mph - N/A   Overcast
4:52 AM 64.0 °F - 63.0 °F 96% 29.83 in 8.0 mi SE 4.6 mph - N/A   Overcast
5:07 AM 64.4 °F - 62.6 °F 94% 29.84 in 8.0 mi SE 5.8 mph - N/A   Overcast
5:19 AM 64.4 °F - 62.6 °F 94% 29.84 in 8.0 mi SE 3.5 mph - N/A   Overcast
5:52 AM 64.9 °F - 64.0 °F 97% 29.84 in 8.0 mi SE 5.8 mph - N/A   Overcast
6:52 AM 64.9 °F - 63.0 °F 93% 29.84 in 9.0 mi SSE 4.6 mph - N/A   Mostly Cloudy
7:08 AM 64.4 °F - 62.6 °F 94% 29.84 in 8.0 mi SSE 5.8 mph - N/A   Scattered Clouds
7:52 AM 64.9 °F - 63.0 °F 93% 29.85 in 7.0 mi Calm Calm - N/A   Overcast
8:52 AM 66.0 °F - 64.0 °F 93% 29.85 in 10.0 mi SE 5.8 mph - N/A   Clear
11:52 AM 75.9 °F - 66.9 °F 74% 29.82 in 10.0 mi SSW 13.8 mph - N/A   Clear
12:52 PM 77.0 °F - 66.0 °F 69% 29.78 in 10.0 mi South 19.6 mph 24.2 mph N/A   Clear
1:52 PM 78.1 °F - 64.9 °F 64% 29.76 in 10.0 mi South 18.4 mph 23.0 mph N/A   Clear
2:52 PM 80.1 °F 82.1 °F 66.0 °F 62% 29.74 in 10.0 mi South 15.0 mph - N/A   Clear
3:52 PM 80.1 °F 81.9 °F 64.9 °F 60% 29.74 in 10.0 mi South 19.6 mph 25.3 mph N/A   Clear
4:52 PM 79.0 °F - 66.0 °F 64% 29.74 in 10.0 mi South 16.1 mph 23.0 mph N/A   Clear
5:52 PM 78.1 °F - 64.9 °F 64% 29.74 in 10.0 mi South 13.8 mph - N/A   Clear
6:52 PM 73.9 °F - 64.0 °F 71% 29.75 in 10.0 mi South 8.1 mph - N/A   Clear
8:52 PM 72.0 °F - 64.0 °F 76% 29.75 in 10.0 mi SSE 8.1 mph - N/A   Clear
9:52 PM 71.1 °F - 64.0 °F 78% 29.74 in 10.0 mi SSE 8.1 mph - N/A   Clear
10:52 PM 70.0 °F - 63.0 °F 78% 29.73 in 10.0 mi SSE 10.4 mph - N/A   Clear
11:52 PM 70.0 °F - 63.0 °F 78% 29.71 in 10.0 mi South 10.4 mph - N/A   Clear